Location: The Rolnick Observatory
(41.1711°N, 73.3275°W)
Time: 05:46:28
(UTC-04:00)

Envisat - Pass Details

Date: 26 February 2019
Orbit: 764 x 766 km, 98.1° (Epoch: 19 October)

Event Time Altitude Azimuth Distance (km) Brightness Sun altitude
Rises 18:27:22 0° 163° (SSE) 3,216 6.1 -9.6°
Reaches altitude 10° 18:29:39 10° 163° (SSE) 2,294 5.3 -10.0°
Maximum altitude 18:34:43 84° 76° (ENE) 774 3.0 -11.0°
Drops below altitude 10° 18:39:49 10° 349° (NNW) 2,309 5.6 -11.9°
Sets 18:42:08 0° 348° (NNW) 3,239 6.4 -12.4°
